Theta_e
302 300 298 296 296 296 296 293 288 283 283 284 286 290 289 291 292 288 287 293 292 291 291 291 291 291 291 291 291 291 292 292 292 292 293 294 294 295
300 297 296 295 295 296 295 294 292 289 284 286 286 289 289 290 292 287 286 291 290 290 290 289 289 289 289 289 289 289 290 290 290 290 291 292 293 293
299 299 296 295 294 295 295 295 292 291 287 285 287 289 288 288 288 285 288 285 285 289 288 288 287 287 287 287 287 287 287 287 287 287 289 290 291 292
297 298 296 296 295 295 294 292 292 291 288 284 285 286 286 287 284 284 285 286 284 288 287 286 286 285 285 285 285 285 285 285 285 285 286 287 289 289
295 295 293 293 293 294 294 293 293 293 289 286 283 286 285 284 283 283 283 283 284 287 287 286 286 285 284 284 284 284 284 284 284 284 284 285 286 287
296 296 295 295 294 294 294 292 293 290 289 286 285 284 284 283 283 280 278 281 281 284 285 285 285 285 284 284 283 283 283 283 284 283 283 283 284 285
296 297 295 297 295 295 294 292 291 290 288 286 284 282 282 281 280 281 279 279 279 281 281 281 281 280 281 283 283 282 282 282 283 283 283 282 283 283
290 291 293 295 294 292 292 291 291 290 287 286 284 282 282 282 283 280 278 276 275 279 278 278 280 278 278 278 282 282 281 281 282 282 282 282 281 281
288 288 288 289 291 290 290 290 289 289 287 288 285 284 283 283 283 281 279 278 276 274 278 275 275 274 275 280 283 282 282 281 281 282 281 282 281 280
290 290 290 289 290 289 288 287 287 286 286 286 287 286 286 285 284 283 281 277 275 274 275 272 269 272 272 275 283 283 282 282 281 281 281 281 281 280
289 290 290 289 289 290 287 285 285 284 288 289 288 287 287 287 284 281 277 277 274 273 271 274 270 269 270 271 275 283 283 282 281 281 280 280 280 280
287 288 288 288 288 287 286 285 283 282 283 283 284 285 286 285 285 284 281 279 274 272 274 274 270 273 272 272 270 273 276 281 281 280 279 279 279 270
286 286 286 287 288 288 287 286 285 283 283 283 281 282 282 282 282 283 283 283 277 274 274 275 271 269 271 272 271 273 274 272 270 271 276 278 278 274
285 286 286 287 288 287 285 286 284 282 282 280 280 279 278 278 277 278 278 279 278 278 276 276 273 272 271 267 272 274 274 272 271 268 268 273 276 276
286 286 286 287 287 286 285 284 280 280 279 279 279 278 278 276 275 275 275 275 275 276 277 275 274 271 272 270 269 269 271 271 270 269 269 268 269 268
285 285 285 285 285 285 283 280 281 280 279 279 278 276 275 275 274 274 273 274 273 272 274 274 274 272 268 268 269 268 269 268 269 269 269 268 270 271
283 283 283 283 280 280 279 277 278 279 278 277 275 275 274 275 273 274 274 273 271 270 271 272 274 274 273 270 267 267 267 266 267 268 267 265 267 269
282 280 280 280 278 278 275 276 277 277 277 277 276 275 275 274 273 274 274 273 272 271 271 272 272 272 273 273 274 268 267 267 267 269 268 264 264 267
281 279 279 280 279 278 276 276 276 277 278 277 276 275 275 275 274 273 273 273 273 272 272 272 271 271 269 267 270 276 268 268 268 266 267 266 264 267
281 279 278 280 280 279 277 277 277 277 277 277 276 276 275 275 274 274 273 272 273 273 273 273 272 271 269 267 266 269 276 269 267 266 265 266 269 273
280 279 279 280 280 280 278 278 278 277 278 278 276 276 276 275 275 275 274 274 273 274 273 272 274 274 271 270 264 266 271 276 272 268 267 264 265 265
280 277 278 279 280 280 279 279 278 278 278 278 277 277 277 277 275 275 274 274 273 274 274 273 273 271 270 269 266 263 267 268 273 275 274 271 265 259
278 278 277 278 280 279 279 279 279 279 279 279 278 277 277 276 276 276 275 274 274 273 271 269 270 271 269 269 267 266 265 263 268 267 267 272 272 273
Wind_Speed
13 12 9 5 5 5 8 12 11 7 7 5 4 7 5 7 9 6 4 13 11 10 9 10 10 9 9 9 9 9 11 12 12 11 10 13 14 17
8 12 9 5 7 6 9 9 3 6 7 3 2 6 8 6 11 7 6 12 12 10 10 10 10 10 8 9 8 10 11 12 12 10 11 13 14 16
12 13 11 10 7 7 6 7 5 4 7 3 3 6 9 9 8 6 6 5 5 12 12 10 10 10 8 8 8 10 11 11 11 10 10 12 14 16
13 12 14 11 12 10 8 9 9 6 5 7 3 4 5 9 9 8 7 6 4 12 13 13 12 11 9 7 8 10 9 10 10 10 11 12 13 15
15 16 15 16 13 11 11 10 9 7 7 7 6 4 3 8 8 6 6 6 5 14 14 15 13 11 9 9 8 8 7 7 8 10 10 12 13 13
15 16 16 17 16 14 13 13 11 10 9 9 6 8 7 9 9 9 6 5 6 7 10 9 12 11 9 9 9 7 5 6 6 8 11 11 12 12
11 11 12 14 19 18 12 11 13 12 10 9 7 6 8 11 13 8 7 7 1 3 5 4 4 3 3 6 7 6 3 4 5 7 11 11 10 10
11 8 9 16 16 17 16 19 18 15 12 8 6 10 12 11 10 10 8 7 6 3 4 3 4 4 3 2 6 5 4 2 3 6 7 8 9 9
10 10 8 8 13 11 13 17 13 15 12 11 12 11 11 15 14 14 11 10 3 3 5 4 1 4 3 4 8 7 5 4 2 4 6 6 5 5
10 12 12 10 11 12 11 10 7 6 6 6 11 15 13 13 14 8 10 7 4 2 2 3 2 3 2 1 9 9 6 4 3 4 5 5 4 2
7 8 9 9 14 20 14 11 9 5 6 8 11 16 17 21 16 12 10 10 3 3 3 4 3 3 2 2 3 11 9 7 4 3 5 6 4 5
7 7 15 13 19 20 12 12 11 8 10 9 9 11 17 18 25 14 13 13 5 3 6 5 4 4 3 2 3 2 0 5 5 4 5 5 4 2
7 6 6 17 19 19 14 10 11 12 10 9 8 8 8 10 8 7 12 11 7 2 6 5 3 3 3 3 2 3 3 1 2 3 5 4 4 2
8 6 7 19 20 20 14 16 21 13 9 9 9 8 8 7 5 5 5 5 4 2 12 4 4 4 4 2 3 3 2 2 3 2 1 2 2 4
5 9 13 19 20 15 17 22 18 10 9 10 9 7 6 6 10 7 6 8 7 5 8 3 5 4 4 3 4 3 5 2 2 2 2 2 1 0
8 8 10 13 13 10 12 15 9 9 10 9 7 6 9 7 7 6 4 3 3 3 4 3 5 5 4 2 3 4 2 4 2 2 2 0 1 2
8 6 6 7 7 7 7 6 6 8 8 8 9 8 9 7 6 7 6 5 3 5 4 2 4 4 3 7 3 2 3 2 2 3 3 1 2 3
5 7 7 8 8 9 9 8 7 10 8 8 9 9 10 9 8 7 6 5 5 6 5 5 6 3 2 1 3 4 2 3 2 4 3 2 2 3
6 7 8 8 7 8 8 8 8 8 10 9 9 9 9 9 11 9 8 7 7 7 7 8 8 6 6 4 1 10 5 3 3 1 3 3 3 4
6 7 7 7 7 8 8 8 7 8 9 8 9 10 10 10 11 9 9 9 9 8 8 8 8 9 6 7 5 3 15 5 4 3 2 1 3 8
5 6 5 7 8 7 8 8 10 10 10 9 9 10 10 10 10 10 9 12 10 8 9 9 8 8 4 5 4 1 2 14 9 5 3 2 1 2
7 5 6 6 7 8 8 9 9 9 10 10 10 10 10 10 10 11 10 10 9 7 6 4 7 7 4 3 3 4 3 1 4 11 9 7 5 2
5 6 6 6 7 7 8 8 9 9 10 10 10 10 10 10 9 9 9 9 9 7 7 6 6 5 5 3 5 3 5 3 3 3 0 3 4 8
Wind_Direction
186 172 162 145 137 139 148 162 143 157 187 179 152 190 176 173 168 131 135 159 153 145 139 125 120 110 98 89 86 81 74 66 59 54 50 50 46 44
165 152 152 137 136 150 159 171 134 137 160 150 130 149 174 176 159 139 145 157 155 151 142 134 120 108 103 100 95 85 76 69 62 56 53 57 53 49
159 159 150 134 167 147 156 166 124 108 129 74 72 150 160 171 151 142 150 125 156 157 145 132 116 108 104 99 92 84 76 70 64 53 53 54 53 53
168 171 174 167 172 153 162 134 124 102 118 135 125 164 158 170 149 147 144 145 153 165 155 139 130 121 117 104 89 79 74 68 63 57 56 57 52 54
166 168 163 157 157 151 149 142 161 154 142 149 149 145 146 153 149 142 150 133 169 167 161 147 141 135 128 115 97 84 78 77 75 66 64 56 54 57
171 172 166 165 159 165 166 172 168 154 156 150 140 162 169 158 161 155 151 165 172 172 164 149 146 148 137 125 110 93 83 73 71 73 66 60 53 54
173 173 177 181 170 170 169 168 169 167 152 156 150 148 161 163 179 169 162 156 159 172 160 158 148 125 142 124 110 113 107 87 68 65 69 61 53 44
168 169 167 164 163 162 163 171 174 174 165 157 158 169 175 175 170 168 152 160 190 187 136 157 142 153 166 147 151 152 128 125 98 79 69 80 62 51
168 162 156 167 162 161 157 163 173 176 170 165 163 180 165 186 164 168 175 180 161 166 140 164 143 179 206 171 179 177 168 173 132 94 69 46 86 56
172 169 166 165 166 153 153 157 165 148 158 160 175 178 173 172 175 167 153 115 79 80 108 145 203 194 204 177 208 195 193 203 180 105 76 39 23 52
156 165 166 162 159 153 150 153 155 143 148 150 149 130 142 161 149 130 152 155 125 195 196 130 188 135 192 201 211 215 208 213 197 123 64 24 14 36
149 166 165 165 162 155 153 152 154 151 146 143 127 133 156 163 164 173 159 171 142 148 207 138 155 154 170 192 189 206 299 248 199 125 57 24 340 76
163 166 168 162 167 164 158 164 161 146 145 129 123 133 141 153 169 165 176 174 165 140 181 124 149 150 94 139 180 170 170 178 71 73 52 16 333 112
171 175 175 175 176 174 164 162 147 142 144 148 150 149 158 150 122 110 99 92 66 144 164 149 138 155 128 117 161 142 138 141 128 129 79 26 39 42
167 180 174 182 183 178 170 154 147 152 152 158 159 158 152 136 120 99 79 88 70 87 147 136 135 131 124 138 157 176 134 186 132 146 126 112 233 133
163 168 173 180 182 170 157 153 158 158 161 160 146 128 122 148 131 120 108 131 95 93 57 69 126 129 118 115 129 149 155 172 155 166 132 81 263 214
144 146 165 172 155 156 149 151 146 147 152 144 145 146 144 151 142 137 130 146 131 148 140 109 105 92 93 145 112 150 150 144 186 153 105 220 268 248
150 163 175 178 170 169 158 162 163 161 154 150 152 156 155 159 150 147 147 158 148 164 152 150 145 118 105 216 183 154 150 138 189 156 121 136 293 265
170 175 177 182 174 172 170 174 174 171 154 155 157 158 159 156 155 166 163 164 170 171 168 160 164 158 165 180 220 185 145 163 151 125 161 175 201 251
174 173 171 179 173 174 171 179 166 164 161 163 160 163 164 162 166 170 172 179 175 166 169 177 182 184 175 179 168 212 187 143 152 160 188 240 241 267
174 165 170 178 183 175 173 177 173 175 172 171 166 169 168 170 175 175 177 177 172 174 184 190 188 166 108 106 71 122 166 184 172 157 159 139 251 315
190 158 172 180 175 173 173 176 174 173 173 176 172 174 176 177 178 173 173 172 176 182 182 145 149 149 148 160 154 152 157 56 202 188 179 180 162 225
170 170 165 173 173 170 175 178 180 179 178 178 174 177 175 176 173 170 167 169 171 171 153 148 155 159 165 154 141 145 147 165 150 117 242 174 239 260